AFR72KD LFBO-LFPG

Flight info

Callsign AFR72KD
Flight time 0h 59m
Altitude 30000
Route FISTO7B/32R FISTO DCT POI DCT PEPAX UT182 KEPER
Aircraft A320/M-SDE3FGHIRWY/LB1

Departure

Time 2026-05-07 17:45
Airport Toulouse-Blagnac Airport (LFBO)

Arrival

Time 2026-05-07 18:44
Airport Charles de Gaulle International Airport (LFPG)
Time Latitude Longitude Altitude Speed Heading
2026-05-07 17:19 43.62912 1.37394 489 ft 0 kts 48°
2026-05-07 17:33 43.62911 1.37394 494 ft 2 kts 48°
2026-05-07 17:33 43.62901 1.37377 483 ft 2 kts 48°
2026-05-07 17:33 43.62890 1.37361 492 ft 2 kts 48°
2026-05-07 17:34 43.62879 1.37344 491 ft 2 kts 48°
2026-05-07 17:34 43.62869 1.37327 491 ft 2 kts 66°
2026-05-07 17:34 43.62864 1.37306 486 ft 2 kts 107°
2026-05-07 17:34 43.62871 1.37285 488 ft 2 kts 132°
2026-05-07 17:35 43.62874 1.37280 489 ft 0 kts 142°
2026-05-07 17:38 43.62857 1.37298 483 ft 9 kts 142°
2026-05-07 17:38 43.62798 1.37359 488 ft 12 kts 142°
2026-05-07 17:38 43.62728 1.37433 487 ft 9 kts 144°
2026-05-07 17:38 43.62663 1.37494 490 ft 12 kts 161°
2026-05-07 17:39 43.62609 1.37427 489 ft 12 kts 231°
2026-05-07 17:39 43.62547 1.37332 488 ft 13 kts 204°
2026-05-07 17:39 43.62462 1.37400 490 ft 16 kts 142°
2026-05-07 17:39 43.62365 1.37500 491 ft 19 kts 143°
2026-05-07 17:40 43.62282 1.37587 491 ft 16 kts 143°
2026-05-07 17:40 43.62228 1.37643 490 ft 10 kts 142°
2026-05-07 17:40 43.62162 1.37713 489 ft 14 kts 142°
2026-05-07 17:40 43.62076 1.37799 489 ft 17 kts 143°
2026-05-07 17:41 43.61974 1.37905 492 ft 20 kts 143°
2026-05-07 17:41 43.61856 1.38028 490 ft 23 kts 143°
2026-05-07 17:41 43.61747 1.38141 488 ft 16 kts 143°
2026-05-07 17:41 43.61645 1.38149 488 ft 17 kts 226°
2026-05-07 17:42 43.61588 1.38041 491 ft 6 kts 234°
2026-05-07 17:42 43.61584 1.38002 491 ft 4 kts 307°
2026-05-07 17:42 43.61593 1.37992 492 ft 0 kts 322°
2026-05-07 17:44 43.61685 1.37894 486 ft 49 kts 322°
2026-05-07 17:44 43.62162 1.37403 489 ft 118 kts 323°
2026-05-07 17:44 43.62963 1.36569 493 ft 169 kts 323°
2026-05-07 17:44 43.63925 1.35574 1077 ft 171 kts 323°
2026-05-07 17:45 43.64859 1.34568 1810 ft 170 kts 322°
2026-05-07 17:45 43.65790 1.33543 2437 ft 176 kts 323°
2026-05-07 17:45 43.66806 1.32425 2744 ft 198 kts 323°
2026-05-07 17:45 43.67931 1.31185 3041 ft 222 kts 322°
2026-05-07 17:46 43.69205 1.29779 3445 ft 246 kts 322°
2026-05-07 17:46 43.70601 1.28239 3997 ft 264 kts 322°
2026-05-07 17:46 43.72132 1.26815 4895 ft 268 kts 339°
2026-05-07 17:46 43.73926 1.26110 5860 ft 268 kts 346°
2026-05-07 17:47 43.75742 1.25512 6807 ft 269 kts 346°
2026-05-07 17:47 43.77599 1.25052 7647 ft 275 kts 356°
2026-05-07 17:47 43.79535 1.24986 8450 ft 281 kts 358°
2026-05-07 17:47 43.81486 1.24931 9276 ft 287 kts 357°
2026-05-07 17:48 43.83499 1.24871 10146 ft 293 kts 357°
2026-05-07 17:48 43.85612 1.24801 10564 ft 315 kts 357°
2026-05-07 17:48 43.87864 1.24721 11071 ft 330 kts 357°
2026-05-07 17:48 43.90180 1.24641 11798 ft 335 kts 357°
2026-05-07 17:49 43.92525 1.24564 12551 ft 340 kts 357°
2026-05-07 17:49 43.94906 1.24487 13299 ft 344 kts 356°
2026-05-07 17:49 43.97316 1.24406 13996 ft 348 kts 356°
2026-05-07 17:49 43.99719 1.24325 14646 ft 352 kts 356°
2026-05-07 17:50 44.02178 1.24244 15299 ft 356 kts 356°
2026-05-07 17:50 44.04667 1.24162 15932 ft 360 kts 356°
2026-05-07 17:50 44.07182 1.24076 16578 ft 363 kts 356°
2026-05-07 17:50 44.09721 1.23986 17233 ft 366 kts 356°
2026-05-07 17:51 44.12281 1.23896 17891 ft 370 kts 356°
2026-05-07 17:51 44.14868 1.23807 18498 ft 373 kts 356°
2026-05-07 17:51 44.17472 1.23715 19046 ft 377 kts 356°
2026-05-07 17:51 44.20108 1.23621 19594 ft 380 kts 356°
2026-05-07 17:52 44.22730 1.23530 20133 ft 384 kts 356°
2026-05-07 17:52 44.25415 1.23438 20665 ft 388 kts 356°
2026-05-07 17:52 44.28122 1.23343 21195 ft 391 kts 356°
2026-05-07 17:52 44.30853 1.23246 21708 ft 395 kts 356°
2026-05-07 17:53 44.33615 1.23153 22220 ft 398 kts 356°
2026-05-07 17:53 44.36393 1.23062 22714 ft 402 kts 356°
2026-05-07 17:53 44.39198 1.22962 23222 ft 405 kts 356°
2026-05-07 17:53 44.42027 1.22859 23689 ft 408 kts 356°
2026-05-07 17:54 44.44876 1.22712 24098 ft 410 kts 352°
2026-05-07 17:54 44.47684 1.22052 24505 ft 410 kts 342°
2026-05-07 17:54 44.50390 1.20935 24892 ft 412 kts 340°
2026-05-07 17:54 44.53144 1.19772 25291 ft 415 kts 340°
2026-05-07 17:55 44.55918 1.18597 25687 ft 418 kts 340°
2026-05-07 17:55 44.58708 1.17414 26076 ft 421 kts 340°
2026-05-07 17:55 44.61520 1.16223 26466 ft 424 kts 340°
2026-05-07 17:55 44.64351 1.15026 26858 ft 426 kts 340°
2026-05-07 17:56 44.67197 1.13820 27248 ft 429 kts 340°
2026-05-07 17:56 44.70062 1.12604 27631 ft 431 kts 340°
2026-05-07 17:56 44.72900 1.11397 27995 ft 434 kts 340°
2026-05-07 17:56 44.75802 1.10160 28349 ft 437 kts 340°
2026-05-07 17:57 44.78718 1.08918 28716 ft 439 kts 340°
2026-05-07 17:57 44.80662 1.08090 28956 ft 441 kts 340°
2026-05-07 17:57 44.84609 1.06409 29426 ft 445 kts 340°
2026-05-07 17:57 44.87578 1.05140 29775 ft 448 kts 340°
2026-05-07 17:58 44.90565 1.03857 29935 ft 449 kts 340°
2026-05-07 17:58 44.93577 1.02561 29953 ft 457 kts 340°
2026-05-07 17:58 44.99724 0.99920 29957 ft 470 kts 340°
2026-05-07 17:59 45.05991 0.97226 29953 ft 471 kts 340°
2026-05-07 17:59 45.12263 0.94518 29953 ft 472 kts 340°
2026-05-07 18:00 45.18538 0.91805 29947 ft 471 kts 340°
2026-05-07 18:00 45.24809 0.89100 29949 ft 471 kts 340°
2026-05-07 18:01 45.31029 0.86407 29951 ft 471 kts 340°
2026-05-07 18:01 45.37290 0.83682 29947 ft 470 kts 339°
2026-05-07 18:02 45.46661 0.79585 29948 ft 469 kts 340°
2026-05-07 18:03 45.52904 0.76855 29959 ft 469 kts 340°
2026-05-07 18:03 45.59098 0.74152 29961 ft 469 kts 341°
2026-05-07 18:04 45.65424 0.72677 30359 ft 472 kts 349°
2026-05-07 18:04 45.68681 0.72041 30728 ft 472 kts 349°
2026-05-07 18:04 45.71932 0.71415 31090 ft 471 kts 349°
2026-05-07 18:04 45.75180 0.70787 31443 ft 471 kts 349°
2026-05-07 18:05 45.78421 0.70155 31803 ft 470 kts 349°
2026-05-07 18:05 45.81659 0.69517 32161 ft 469 kts 349°
2026-05-07 18:05 45.84891 0.68876 32527 ft 469 kts 349°
2026-05-07 18:05 45.88077 0.68244 32897 ft 468 kts 348°
2026-05-07 18:06 45.91295 0.67602 33272 ft 467 kts 348°
2026-05-07 18:06 45.94507 0.66960 33656 ft 466 kts 348°
2026-05-07 18:06 45.97712 0.66316 34043 ft 465 kts 348°
2026-05-07 18:06 46.00910 0.65674 34368 ft 463 kts 348°
2026-05-07 18:07 46.04098 0.65038 34702 ft 462 kts 348°
2026-05-07 18:07 46.07276 0.64408 35042 ft 460 kts 348°
2026-05-07 18:07 46.10441 0.63778 35383 ft 458 kts 348°
2026-05-07 18:07 46.13547 0.63158 35725 ft 456 kts 348°
2026-05-07 18:08 46.16692 0.62523 35906 ft 458 kts 348°
2026-05-07 18:08 46.23106 0.62374 35963 ft 470 kts
2026-05-07 18:09 46.29538 0.64240 35965 ft 472 kts
2026-05-07 18:09 46.35974 0.66185 35969 ft 472 kts
2026-05-07 18:10 46.42406 0.68109 35968 ft 472 kts
2026-05-07 18:10 46.48694 0.69977 35971 ft 457 kts
2026-05-07 18:11 46.54900 0.71819 35970 ft 455 kts
2026-05-07 18:11 46.61093 0.73663 35971 ft 453 kts
2026-05-07 18:12 46.67271 0.75507 35974 ft 453 kts
2026-05-07 18:12 46.73410 0.77352 35975 ft 453 kts
2026-05-07 18:13 46.79589 0.79220 35979 ft 453 kts
2026-05-07 18:13 46.85763 0.81086 35977 ft 453 kts
2026-05-07 18:14 46.91938 0.82948 35983 ft 453 kts
2026-05-07 18:14 46.98106 0.84820 35987 ft 452 kts
2026-05-07 18:15 47.04226 0.86671 35805 ft 453 kts
2026-05-07 18:15 47.07348 0.87612 34730 ft 464 kts
2026-05-07 18:15 47.10548 0.88579 33740 ft 473 kts
2026-05-07 18:15 47.13740 0.89557 33450 ft 462 kts
2026-05-07 18:16 47.16836 0.90517 33331 ft 448 kts
2026-05-07 18:16 47.19834 0.91447 33238 ft 434 kts
2026-05-07 18:16 47.22751 0.92347 33130 ft 421 kts
2026-05-07 18:17 47.28346 0.94057 32925 ft 412 kts
2026-05-07 18:17 47.33966 0.95771 32734 ft 412 kts
2026-05-07 18:17 47.36766 0.96632 32591 ft 412 kts
2026-05-07 18:18 47.39571 0.97497 32099 ft 412 kts
2026-05-07 18:18 47.42370 0.98363 31584 ft 410 kts
2026-05-07 18:18 47.45158 0.99228 31085 ft 408 kts
2026-05-07 18:18 47.47899 1.00076 30598 ft 407 kts
2026-05-07 18:19 47.50661 1.00938 30109 ft 406 kts 12°
2026-05-07 18:19 47.53410 1.02057 29540 ft 412 kts 15°
2026-05-07 18:19 47.56159 1.03282 28968 ft 412 kts 16°
2026-05-07 18:19 47.58888 1.04557 28421 ft 410 kts 17°
2026-05-07 18:20 47.61599 1.05845 27871 ft 408 kts 16°
2026-05-07 18:20 47.64292 1.07120 27337 ft 405 kts 16°
2026-05-07 18:20 47.66969 1.08367 26810 ft 403 kts 16°
2026-05-07 18:20 47.69639 1.09598 26297 ft 400 kts 16°
2026-05-07 18:21 47.72290 1.10814 25796 ft 398 kts 16°
2026-05-07 18:21 47.74891 1.12006 25303 ft 395 kts 16°
2026-05-07 18:21 47.77510 1.13204 24815 ft 393 kts 16°
2026-05-07 18:21 47.80117 1.14397 24341 ft 391 kts 16°
2026-05-07 18:22 47.82707 1.15587 23867 ft 388 kts 16°
2026-05-07 18:22 47.84412 1.16373 23553 ft 387 kts 16°
2026-05-07 18:22 47.87848 1.17956 22813 ft 385 kts 16°
2026-05-07 18:22 47.90398 1.19131 22272 ft 384 kts 16°
2026-05-07 18:23 47.92945 1.20307 21731 ft 382 kts 16°
2026-05-07 18:23 47.95448 1.21468 21222 ft 381 kts 16°
2026-05-07 18:23 47.97975 1.22641 20704 ft 380 kts 16°
2026-05-07 18:23 48.00498 1.23813 20200 ft 379 kts 16°
2026-05-07 18:24 48.03014 1.24984 19705 ft 378 kts 16°
2026-05-07 18:24 48.05519 1.26154 19218 ft 377 kts 16°
2026-05-07 18:24 48.08021 1.27317 18732 ft 376 kts 16°
2026-05-07 18:24 48.10516 1.28477 18238 ft 375 kts 16°
2026-05-07 18:25 48.13003 1.29635 17710 ft 374 kts 16°
2026-05-07 18:25 48.15481 1.30791 17165 ft 373 kts 16°
2026-05-07 18:25 48.17922 1.31930 16647 ft 372 kts 16°
2026-05-07 18:25 48.20388 1.33085 16128 ft 371 kts 16°
2026-05-07 18:26 48.22846 1.34237 15642 ft 370 kts 15°
2026-05-07 18:26 48.25300 1.35389 15161 ft 368 kts 15°
2026-05-07 18:26 48.27708 1.36521 14987 ft 357 kts 15°
2026-05-07 18:26 48.30035 1.37616 14821 ft 346 kts 15°
2026-05-07 18:27 48.32311 1.38686 14577 ft 339 kts 15°
2026-05-07 18:27 48.34544 1.39737 14340 ft 333 kts 15°
2026-05-07 18:27 48.36708 1.40755 14102 ft 328 kts 15°
2026-05-07 18:27 48.38871 1.41771 13866 ft 324 kts 15°
2026-05-07 18:28 48.41019 1.42780 13603 ft 322 kts 15°
2026-05-07 18:28 48.43153 1.43785 13347 ft 321 kts 15°
2026-05-07 18:28 48.45278 1.44790 13082 ft 319 kts 15°
2026-05-07 18:28 48.47393 1.45792 12820 ft 318 kts 15°
2026-05-07 18:29 48.49485 1.46783 12519 ft 314 kts 15°
2026-05-07 18:29 48.51565 1.47770 12204 ft 310 kts 15°
2026-05-07 18:29 48.53614 1.48743 11863 ft 308 kts 15°
2026-05-07 18:29 48.55663 1.49715 11498 ft 307 kts 15°
2026-05-07 18:30 48.57686 1.50762 11084 ft 308 kts 22°
2026-05-07 18:30 48.59588 1.52173 11007 ft 302 kts 24°
2026-05-07 18:30 48.61474 1.53570 11019 ft 302 kts 24°
2026-05-07 18:30 48.63359 1.54956 11021 ft 302 kts 24°
2026-05-07 18:31 48.65250 1.56347 10707 ft 302 kts 24°
2026-05-07 18:31 48.67115 1.57720 10338 ft 302 kts 24°
2026-05-07 18:31 48.68996 1.59106 9990 ft 300 kts 24°
2026-05-07 18:31 48.70863 1.60484 9618 ft 298 kts 24°
2026-05-07 18:32 48.72712 1.61853 9271 ft 294 kts 24°
2026-05-07 18:32 48.74537 1.63206 8996 ft 290 kts 24°
2026-05-07 18:32 48.76299 1.64667 8799 ft 289 kts 37°
2026-05-07 18:32 48.77609 1.66971 8600 ft 290 kts 52°
2026-05-07 18:33 48.78780 1.69423 8401 ft 289 kts 53°
2026-05-07 18:33 48.79963 1.71907 8201 ft 287 kts 53°
2026-05-07 18:33 48.81128 1.74345 7936 ft 284 kts 53°
2026-05-07 18:33 48.82287 1.76763 7798 ft 284 kts 53°
2026-05-07 18:34 48.83435 1.79146 7605 ft 283 kts 53°
2026-05-07 18:34 48.84597 1.81553 7411 ft 282 kts 52°
2026-05-07 18:34 48.85755 1.83950 7214 ft 280 kts 53°
2026-05-07 18:34 48.86904 1.86337 7019 ft 279 kts 53°
2026-05-07 18:35 48.88042 1.88709 6821 ft 278 kts 53°
2026-05-07 18:35 48.89176 1.91078 6630 ft 276 kts 53°
2026-05-07 18:35 48.90302 1.93432 6440 ft 275 kts 53°
2026-05-07 18:35 48.91426 1.95778 6232 ft 274 kts 52°
2026-05-07 18:36 48.92544 1.98106 6064 ft 268 kts 53°
2026-05-07 18:36 48.93614 2.00342 5968 ft 255 kts 53°
2026-05-07 18:36 48.94628 2.02467 5862 ft 242 kts 53°
2026-05-07 18:36 48.95580 2.04464 5765 ft 231 kts 53°
2026-05-07 18:37 48.96388 2.06542 5663 ft 228 kts 72°
2026-05-07 18:37 48.96636 2.08923 5508 ft 228 kts 84°
2026-05-07 18:37 48.96767 2.11322 5224 ft 227 kts 85°
2026-05-07 18:37 48.96900 2.13697 5023 ft 222 kts 85°
2026-05-07 18:38 48.97032 2.15989 4975 ft 211 kts 85°
2026-05-07 18:38 48.97156 2.18164 4980 ft 204 kts 84°
2026-05-07 18:38 48.97279 2.20304 4976 ft 203 kts 85°
2026-05-07 18:38 48.97400 2.22437 4780 ft 202 kts 85°
2026-05-07 18:39 48.97520 2.24539 4528 ft 203 kts 85°
2026-05-07 18:39 48.97639 2.26653 4277 ft 198 kts 85°
2026-05-07 18:39 48.97756 2.28716 3992 ft 193 kts 85°
2026-05-07 18:39 48.97869 2.30731 3732 ft 188 kts 85°
2026-05-07 18:40 48.97979 2.32688 3486 ft 184 kts 85°
2026-05-07 18:40 48.98086 2.34603 3244 ft 179 kts 85°
2026-05-07 18:40 48.98178 2.36252 3027 ft 176 kts 85°
2026-05-07 18:40 48.98280 2.38093 2789 ft 173 kts 85°
2026-05-07 18:41 48.98381 2.39906 2560 ft 170 kts 84°
2026-05-07 18:41 48.98479 2.41683 2328 ft 167 kts 85°
2026-05-07 18:41 48.98574 2.43404 2104 ft 158 kts 84°
2026-05-07 18:41 48.98662 2.45013 1924 ft 145 kts 85°
2026-05-07 18:42 48.98743 2.46492 1713 ft 137 kts 84°
2026-05-07 18:42 48.98822 2.47928 1523 ft 135 kts 85°
2026-05-07 18:42 48.98901 2.49347 1340 ft 134 kts 85°
2026-05-07 18:42 48.98983 2.50765 1134 ft 135 kts 85°
2026-05-07 18:43 48.99059 2.52192 968 ft 135 kts 84°
2026-05-07 18:43 48.99134 2.53605 768 ft 130 kts 85°
2026-05-07 18:43 48.99209 2.54962 619 ft 129 kts 83°
2026-05-07 18:43 48.99280 2.56333 434 ft 128 kts 84°
2026-05-07 18:44 48.99351 2.57630 355 ft 108 kts 86°
2026-05-07 18:44 48.99396 2.58510 353 ft 61 kts 85°
2026-05-07 18:44 48.99424 2.59017 351 ft 36 kts 83°
2026-05-07 18:44 48.99493 2.59344 357 ft 22 kts 65°
2026-05-07 18:45 48.99551 2.59530 357 ft 19 kts 65°
2026-05-07 18:45 48.99624 2.59685 360 ft 18 kts 13°
2026-05-07 18:45 48.99748 2.59680 357 ft 19 kts 355°
2026-05-07 18:45 48.99888 2.59664 353 ft 21 kts 354°
2026-05-07 18:46 49.00035 2.59646 360 ft 22 kts 356°
2026-05-07 18:46 49.00194 2.59627 354 ft 24 kts 356°
2026-05-07 18:46 49.00368 2.59606 354 ft 26 kts 355°
2026-05-07 18:46 49.00521 2.59584 354 ft 21 kts 355°
2026-05-07 18:47 49.00678 2.59565 356 ft 24 kts 355°
2026-05-07 18:47 49.00851 2.59545 354 ft 27 kts 355°
2026-05-07 18:47 49.00976 2.59521 354 ft 18 kts 334°
2026-05-07 18:47 49.00996 2.59329 357 ft 24 kts 265°
2026-05-07 18:48 49.00980 2.59080 359 ft 22 kts 258°
2026-05-07 18:48 49.00947 2.58836 358 ft 25 kts 266°
2026-05-07 18:48 49.00934 2.58566 354 ft 26 kts 263°
2026-05-07 18:48 49.00922 2.58366 357 ft 19 kts 265°
2026-05-07 18:49 49.00911 2.58173 361 ft 15 kts 262°
2026-05-07 18:49 49.00838 2.58112 359 ft 14 kts 171°
2026-05-07 18:49 49.00748 2.58126 354 ft 12 kts 174°
2026-05-07 18:49 49.00698 2.58083 360 ft 9 kts 253°
2026-05-07 18:50 49.00686 2.58017 356 ft 0 kts 253°